SCP
0 0 0 0 0 0 0 0 0 0 0 0 0 0 0 0 0 0 0 0 0 0 0 0 0 0 0 1 1 1 0 0 0 0 0 0 0 0 0 0 0 0 0 0
0 0 0 0 0 0 0 0 0 0 0 0 0 0 0 0 0 0 0 0 0 0 0 0 0 0 0 1 1 1 0 0 0 0 0 0 0 0 0 0 0 0 0 0
0 0 0 0 0 0 0 0 0 0 0 0 0 0 0 0 0 0 0 0 0 0 0 0 0 0 0 0 0 0 0 0 0 0 0 0 0 0 0 0 0 0 0 0
0 0 0 0 0 0 0 0 0 0 0 0 0 0 0 0 0 0 0 0 0 0 0 0 0 0 0 0 0 0 0 0 0 0 0 0 0 0 0 0 0 0 0 0
0 0 0 0 0 0 0 0 0 0 0 0 0 0 0 0 0 0 0 0 0 0 0 0 0 0 0 0 0 0 0 0 0 0 0 0 0 0 0 0 0 0 0 0
0 0 0 0 0 0 0 0 0 0 0 0 0 0 0 0 0 0 0 0 0 0 0 0 0 0 0 0 0 0 0 0 0 0 0 0 0 0 0 0 0 0 0 0
0 0 0 0 0 0 0 0 0 0 0 0 0 0 0 0 0 0 0 0 0 0 0 0 0 0 0 0 0 0 0 0 0 0 0 0 0 0 0 0 0 0 0 0
0 0 0 0 0 0 0 0 0 0 0 0 0 0 0 0 0 0 0 0 0 0 0 0 0 0 0 0 0 0 0 0 0 0 0 0 0 0 0 0 0 0 0 0
0 0 0 0 0 0 0 0 0 0 0 0 0 0 0 0 0 0 0 0 0 0 0 0 0 0 0 0 0 0 0 0 0 0 0 0 0 0 0 0 0 0 0 0
0 0 0 0 0 0 0 0 0 0 0 0 0 0 0 0 0 0 0 0 0 0 0 0 0 0 0 0 0 0 0 0 0 0 0 0 0 0 0 0 0 0 0 0
0 0 0 0 0 0 0 0 0 0 0 0 0 0 0 0 0 0 0 0 0 0 0 0 0 0 0 0 0 0 0 0 0 0 0 0 0 0 0 0 0 0 0 0
0 0 0 0 0 0 0 0 0 0 0 0 0 0 0 0 0 0 0 0 0 0 0 0 0 0 0 0 0 0 0 0 0 0 0 0 0 0 0 0 0 0 0 0
0 0 0 0 0 0 0 0 0 0 0 0 0 0 0 0 0 0 0 0 0 0 0 0 0 0 0 0 0 0 0 0 0 0 0 0 0 0 0 0 0 0 0 0
0 0 0 0 0 0 0 0 0 0 0 0 0 0 0 0 0 0 0 0 0 0 0 0 0 0 0 0 0 0 0 0 0 0 0 0 0 0 0 0 0 0 0 0
0 0 0 0 0 0 0 0 0 0 0 0 0 0 0 0 0 0 0 0 0 0 0 0 0 0 0 0 0 0 0 0 0 0 0 0 0 0 0 0 0 0 0 0
0 0 0 0 0 0 0 0 0 0 0 0 0 0 0 0 0 0 0 0 0 0 0 0 0 0 0 0 0 0 0 0 0 0 0 0 0 0 0 0 0 0 0 0
0 0 0 0 0 0 0 0 0 0 0 0 0 0 0 0 0 0 0 0 0 0 0 0 0 0 0 0 0 0 0 0 0 0 0 0 0 0 0 0 0 0 0 0
0 0 0 0 0 0 0 0 0 0 0 0 0 0 0 0 0 0 0 0 0 0 0 0 0 0 0 0 0 0 0 0 0 0 0 0 0 0 0 0 0 0 0 0
0 0 0 0 0 0 0 0 0 0 0 0 0 0 0 0 0 0 0 0 0 0 0 0 0 0 0 0 0 0 0 0 0 0 0 0 0 0 0 0 0 0 0 0
0 0 0 0 0 0 0 0 0 0 0 0 0 0 0 0 0 0 0 0 0 0 0 0 0 0 0 0 0 0 0 0 0 0 0 0 0 0 0 0 0 0 0 0
0 0 0 0 0 0 0 0 0 0 0 0 0 0 0 0 0 0 0 0 0 0 0 0 0 0 0 0 0 0 0 0 0 0 0 0 0 0 0 0 0 0 0 0
0 0 0 0 0 0 0 0 0 0 0 0 0 0 0 0 0 0 0 0 0 0 0 0 0 0 0 0 0 0 0 0 0 0 0 0 0 0 0 0 0 0 0 0
0 0 0 0 0 0 0 0 0 0 0 0 0 0 0 0 0 0 0 0 0 0 0 0 0 0 0 0 0 0 0 0 0 0 0 0 0 0 0 0 0 0 0 0
0 0 0 0 0 0 0 0 0 0 0 0 0 0 0 0 0 0 0 0 0 0 0 0 0 0 0 0 0 0 0 0 0 0 0 0 0 0 0 0 0 0 0 0
0 0 0 0 0 0 0 0 0 0 0 0 0 0 0 0 0 0 0 0 0 0 0 0 0 0 0 0 0 0 0 0 0 0 0 0 0 0 0 0 0 0 0 0
0 0 0 0 0 0 0 0 0 0 0 0 0 0 0 0 0 0 0 0 0 0 0 0 0 0 0 0 0 0 0 0 0 0 0 0 0 0 0 0 0 0 0 0
0 0 0 0 0 0 0 0 0 0 0 0 0 0 0 0 0 0 0 0 0 0 0 0 0 0 0 0 0 0 0 0 0 0 0 0 0 0 0 0 0 0 0 0
Wind_Speed
8 7 5 8 9 11 13 12 10 11 14 14 9 7 6 5 6 6 6 6 6 6 6 7 7 7 7 7 7 7 7 7 7 8 7 7 7 7 6 6 7 6 7 7
7 9 9 12 12 14 16 16 18 17 21 14 10 7 7 6 6 7 7 6 7 7 7 8 8 8 8 7 7 7 7 8 7 7 7 7 7 7 6 6 6 5 6 6
5 4 6 13 14 15 13 12 12 18 18 9 8 7 7 6 6 6 7 7 7 7 7 7 8 7 7 7 7 7 7 8 7 7 7 7 7 7 6 6 5 6 5 6
3 2 11 10 6 11 14 15 14 12 10 7 7 5 5 5 5 6 7 6 6 6 7 7 7 7 7 6 6 6 7 7 7 7 7 7 6 7 6 5 5 5 5 5
4 6 10 8 6 7 8 11 11 13 11 8 5 6 6 4 4 5 5 5 6 6 7 7 7 7 6 6 6 6 7 7 8 7 8 7 7 7 5 5 5 5 6 5
6 7 9 5 3 4 2 8 5 6 7 5 1 4 6 5 5 5 6 5 5 6 6 6 7 6 6 7 6 7 7 7 8 7 7 7 7 7 5 5 5 5 5 5
10 9 9 4 4 6 4 7 1 2 2 2 3 5 4 5 5 5 5 6 6 6 6 6 6 6 6 7 7 7 7 7 8 7 7 7 6 5 5 5 4 4 5 5
8 10 11 4 6 7 5 1 2 1 1 1 2 3 4 5 6 6 6 6 6 6 6 6 5 5 6 7 7 7 7 7 7 7 7 7 6 5 4 4 4 4 4 5
9 9 2 6 4 3 0 1 2 2 2 2 3 4 5 6 6 6 6 6 6 6 6 6 5 5 7 7 7 7 7 7 7 8 7 6 6 6 5 4 3 4 3 4
4 6 3 3 2 2 2 2 2 1 2 2 4 5 6 6 6 6 6 6 6 6 6 6 6 6 6 7 7 7 7 7 7 7 7 6 5 4 4 4 4 4 4 4
6 5 4 4 3 2 1 1 2 2 2 2 4 5 5 5 5 5 6 6 5 6 6 7 6 6 6 7 7 7 7 7 6 6 6 5 5 5 5 4 5 5 4 3
7 5 4 3 2 1 2 2 2 2 3 3 3 5 5 5 5 5 5 5 6 6 6 6 6 6 6 6 6 7 7 6 5 5 5 5 5 6 7 7 9 9 8 7
4 2 2 3 2 1 2 2 2 2 3 4 3 3 4 5 4 5 5 6 6 6 6 6 6 7 7 7 6 6 6 6 5 5 5 5 4 5 6 7 8 8 8 8
3 2 4 3 3 2 2 2 2 2 2 2 3 3 4 4 5 5 6 6 6 6 7 7 7 7 7 6 6 6 6 7 7 5 4 4 4 4 4 5 6 5 5 7
3 3 3 2 2 1 1 1 1 2 2 3 3 3 4 4 5 6 5 5 6 6 7 7 7 8 7 6 7 7 6 5 5 4 4 4 4 4 4 4 4 4 4 4
2 1 1 1 2 1 1 1 1 2 2 3 3 3 4 4 5 5 5 5 6 6 7 7 8 8 7 7 7 6 5 9 8 5 4 4 4 4 4 4 4 4 4 4
2 2 2 2 2 1 1 1 1 2 2 2 3 3 4 4 5 6 6 5 5 5 6 7 8 8 7 7 6 5 5 6 9 6 4 4 4 4 4 3 3 4 4 4
2 2 2 2 1 1 1 2 2 2 2 3 3 3 3 4 5 6 6 6 6 6 6 6 7 8 7 7 6 5 5 4 4 4 4 4 4 4 3 3 4 4 4 4
1 1 2 2 1 1 1 2 2 2 2 3 3 3 3 4 4 5 6 6 7 8 8 7 12 9 7 8 8 5 4 5 5 4 4 5 5 4 3 3 4 4 3 3
4 4 4 4 4 3 2 2 2 2 2 3 3 4 4 5 5 5 6 5 5 5 7 8 8 6 6 7 9 5 5 5 5 5 4 4 3 3 3 3 3 3 3 2
4 4 4 3 3 3 3 2 2 2 3 3 3 4 5 5 5 5 5 6 6 6 7 10 7 6 6 7 9 5 5 5 5 4 4 4 3 3 3 3 3 3 2 2
3 3 3 3 3 3 3 3 3 3 3 3 4 4 5 6 6 5 5 5 6 10 7 5 5 8 10 10 5 5 5 5 4 4 4 3 3 3 3 3 2 2 2 1
3 3 3 3 3 2 3 3 3 3 3 4 4 5 5 5 5 5 6 5 5 10 7 5 9 12 13 7 5 5 5 5 4 4 4 3 3 3 3 3 2 2 1 1
3 3 3 3 2 2 3 4 4 3 3 4 4 4 5 5 5 4 4 8 11 12 6 9 13 13 12 5 4 4 4 4 4 4 4 3 3 3 3 2 2 1 1 1
3 2 3 3 3 2 3 3 3 3 4 3 4 4 4 3 4 5 5 6 10 10 6 9 12 12 8 5 4 4 4 4 4 3 3 3 3 3 2 2 2 2 1 1
2 2 2 2 2 2 2 3 3 3 4 4 5 4 4 4 4 5 5 6 7 9 7 5 6 7 5 5 4 4 4 4 5 4 3 3 3 3 2 2 2 2 1 0
3 2 2 2 3 3 3 3 3 4 4 4 5 5 5 5 5 5 5 5 5 5 5 5 5 5 4 4 4 4 4 4 3 3 3 3 3 2 2 2 2 1 0 1
Wind_Direction
257 264 234 229 223 210 214 220 230 249 256 266 278 293 301 305 308 310 312 314 313 310 307 307 307 304 300 297 297 296 293 289 286 284 283 284 288 287 280 275 274 271 271 265
255 243 249 253 236 224 227 231 242 259 267 267 285 300 301 303 306 305 308 309 313 313 310 309 307 303 301 299 300 300 296 293 293 294 291 289 291 294 282 274 274 277 271 266
249 238 271 254 229 220 221 221 224 243 254 277 286 286 291 299 297 298 303 309 312 312 309 308 306 303 301 302 305 305 301 301 298 296 295 290 290 292 281 275 276 274 272 269
255 242 239 242 197 208 225 236 228 241 259 268 272 281 287 286 291 302 308 313 315 315 311 308 304 306 305 307 308 304 303 305 304 303 300 296 293 289 278 276 273 272 273 273
220 242 266 265 228 203 214 251 230 237 255 267 283 300 288 277 297 301 310 313 309 307 305 307 307 307 310 309 308 306 305 305 306 304 304 301 299 294 284 278 275 271 269 271
217 232 242 248 175 144 146 267 243 222 243 257 286 291 288 325 327 317 318 317 315 314 313 311 308 312 314 308 309 304 304 304 304 304 304 303 301 298 289 278 279 278 273 268
225 239 255 251 143 121 180 248 283 200 225 227 229 242 279 319 322 319 317 317 318 317 312 305 308 315 310 306 308 307 306 308 309 309 306 303 300 294 287 289 285 284 286 287
207 227 243 169 149 184 215 346 23 30 22 331 301 310 316 317 317 318 317 316 317 317 311 312 314 316 311 306 307 311 311 307 308 309 307 304 301 303 299 301 295 287 293 300
203 220 227 159 191 226 351 326 331 355 348 337 318 311 312 315 317 317 316 317 318 314 308 310 313 313 309 309 312 312 314 313 309 308 308 309 309 310 309 303 297 296 295 294
251 251 250 228 241 249 258 261 280 297 308 302 293 297 301 304 309 312 313 313 314 313 309 310 313 311 308 312 317 318 318 317 313 312 314 317 317 311 307 305 300 295 296 295
254 271 276 249 239 245 270 299 306 301 289 288 290 290 291 297 300 303 308 311 316 315 308 308 314 314 316 319 323 321 317 316 317 318 318 321 321 315 307 300 294 291 290 289
236 220 223 252 247 257 264 270 278 288 294 291 283 288 298 299 301 306 312 317 318 315 310 311 316 317 320 322 321 317 315 316 317 317 316 318 320 322 321 310 315 308 299 296
261 285 265 280 289 253 244 261 274 273 274 285 291 294 300 302 308 315 317 319 317 317 315 313 315 316 319 321 320 316 314 313 312 312 311 313 314 314 319 328 327 318 313 311
269 287 279 274 276 280 270 273 277 278 291 302 307 312 310 309 315 318 317 317 319 320 321 321 320 318 319 321 321 317 313 311 308 305 305 305 305 306 307 313 321 329 330 323
257 252 250 261 268 283 281 288 312 310 322 321 321 319 317 315 314 314 318 323 323 322 323 324 322 319 324 327 324 318 315 311 308 306 305 304 305 305 306 309 311 314 324 333
273 285 270 266 270 285 311 309 293 298 312 316 322 321 321 318 315 316 320 325 324 320 320 321 319 319 324 325 322 319 316 313 313 311 310 311 311 308 308 310 312 311 313 316
206 238 249 265 279 298 312 317 306 305 321 320 318 322 326 323 322 322 322 324 319 313 317 318 315 317 322 324 321 316 314 315 316 316 315 313 311 309 308 307 307 307 304 306
213 223 214 211 223 267 339 356 353 347 334 324 328 328 323 319 313 313 317 322 322 319 318 318 318 320 323 325 322 314 313 314 316 314 313 313 311 309 307 305 304 303 307 317
70 65 68 62 65 82 52 20 5 358 354 348 335 320 315 316 314 314 319 323 322 317 318 322 322 326 323 321 320 311 312 313 313 311 309 309 310 310 309 308 306 307 311 319
62 58 58 53 53 56 45 27 16 4 356 347 335 328 323 318 316 314 314 309 302 298 305 315 318 318 317 314 316 312 312 311 311 310 310 307 308 310 310 309 309 311 313 318
70 63 57 54 46 41 35 23 13 357 348 345 332 319 313 312 315 314 312 308 308 311 315 318 321 316 315 314 314 314 313 310 309 308 308 307 308 311 312 312 312 313 316 326
69 65 55 49 43 25 13 11 5 354 345 337 331 324 320 318 317 312 296 289 302 316 320 314 314 314 318 318 316 317 314 310 308 309 308 308 309 311 312 313 311 311 317 328
63 59 51 42 33 9 359 360 354 347 337 329 325 320 314 308 307 309 309 311 314 318 319 310 314 318 321 322 319 318 316 313 311 310 308 310 311 308 306 305 303 306 317 340
53 46 39 31 28 18 357 344 343 338 325 317 313 309 307 310 310 302 295 311 319 320 317 315 321 324 325 325 320 318 316 313 311 310 310 310 309 309 309 310 311 318 326 334
50 43 35 27 17 0 343 337 336 330 328 321 314 312 308 303 302 308 311 311 315 320 317 319 325 327 327 320 319 315 312 308 307 307 306 307 309 309 309 311 311 311 318 329
37 29 12 2 350 337 332 334 334 331 330 325 322 322 321 318 313 311 311 312 313 317 318 315 318 322 321 319 319 319 316 314 314 313 310 309 307 305 302 304 302 299 297 325
30 25 16 6 357 350 343 337 330 327 326 322 317 320 323 322 319 317 316 316 317 317 316 317 317 317 317 318 317 316 314 311 310 308 307 305 303 301 301 298 297 289 245 138